Home   Weather   Bhinga   Past weeks

Flag for India Past Weather in Bhinga, Uttar Pradesh, India — Yesterday and Last 2 Weeks

Now
64 °F

Clear.


Feels Like: 64 °F
Forecast: 54 / 79 °F
Wind: No wind

Location: Lucknow / Amausi

Current Time: Dec 4, 2016 at 5:54:05 pm

Latest Report: Dec 4, 2016 at 5:00 pm


Visibility: 1 mi

Pressure: 30.04 "Hg

Humidity: 88%

Dew Point: 61 °F

Location of BhingaLocation

Past Weather in Bhinga — Graph

°F

Bhinga Temperature Yesterday

Maximum temperature yesterday: 72 °F (at 1:00 pm)
Minimum temperature yesterday: 59 °F (at 10:00 pm)
Average temperature yesterday: 64 °F

High & Low Weather Summary for the Past Weeks

 TemperatureHumidityPressure
High86 °F (Nov 22, 1:00 pm)100% (Nov 20, 2:00 am)30.18 "Hg (Nov 20, 2:00 am)
Low52 °F (Nov 29, 5:30 am)27% (Nov 22, 1:30 pm)29.71 "Hg (Dec 2, 8:00 pm)
Average67 °F73%29.93 "Hg
* Reported Nov 19 4:30 pm — Dec 4 4:30 pm, Bhinga, Weather by CustomWeather, © 2016

Note: Actual official high and low records may vary slightly from our data, if they occured in-between our weather recording intervals... More about our weather records

Advertising

Bhinga Weather History for the Previous 24 Hours

Scroll right to see more
 ConditionsComfort  
Time TempWeatherWind HumidityBarometerVisibility
4:30 pm
Sun, Dec 4
66 °FClear.No wind83%30.04 "Hg1 mi
4:00 pm68 °FClear.No wind78%30.04 "Hg1 mi
3:30 pm68 °FClear.No wind83%30.07 "Hg1 mi
2:30 pm64 °FFog.2 mph88%30.07 "Hg1 mi
2:00 pm63 °FFog.2 mph94%30.09 "Hg1 mi
1:30 pm61 °FFog.3 mph100%30.09 "Hg1 mi
1:00 pm61 °FFog.No wind94%30.12 "Hg1 mi
12:30 pm59 °FFog.No wind94%30.12 "Hg1 mi
12:00 pm59 °FFog.No wind94%30.12 "Hg1 mi
11:30 am59 °FFog.No wind94%30.15 "Hg1 mi
11:00 am57 °FFog.No wind100%30.15 "Hg0 mi
10:30 am57 °FFog.No wind100%30.18 "Hg0 mi
10:00 am57 °FFog.No wind100%30.18 "Hg0 mi
9:30 am57 °FFog.No wind100%30.18 "Hg0 mi
9:00 am57 °FFog.No wind100%30.18 "Hg0 mi
8:30 am57 °FFog.No wind100%30.15 "Hg0 mi
7:30 am57 °FFog.2 mph100%30.15 "Hg0 mi
7:00 am57 °FFog.2 mph100%30.12 "Hg0 mi
6:30 am57 °FFog.2 mph100%30.12 "Hg0 mi
6:00 am57 °FFog.2 mph100%30.12 "Hg0 mi
5:30 am57 °FFog.No wind100%30.09 "Hg0 mi
5:00 am57 °FFog.No wind100%30.09 "Hg0 mi
4:00 am57 °FFog.No wind100%30.09 "Hg0 mi
3:00 am57 °FFog.No wind100%30.09 "Hg0 mi
2:00 am57 °FFog.No wind100%30.09 "Hg0 mi
1:00 am57 °FFog.No wind100%30.09 "Hg0 mi
12:00 am59 °FFog.No wind100%30.09 "Hg0 mi
11:00 pm
Sat, Dec 3
59 °FFog.No wind100%30.09 "Hg0 mi
10:00 pm59 °FFog.No wind100%30.09 "Hg0 mi
9:00 pm61 °FFog.No wind100%30.09 "Hg0 mi
8:30 pm61 °FFog.No wind100%30.09 "Hg0 mi
8:00 pm61 °FFog.No wind100%30.09 "Hg0 mi
7:30 pm63 °FFog.No wind94%30.09 "Hg0 mi
7:00 pm61 °FFog.2 mph94%30.09 "Hg1 mi
6:30 pm63 °FFog.2 mph94%30.07 "Hg1 mi
6:00 pm64 °FFog.2 mph94%30.07 "Hg1 mi
5:30 pm64 °FFog.5 mph94%30.07 "Hg1 mi
Weather by CustomWeather, © 2016

See weather overviewHow to use our weather pages